Flag for Liberia Weather past 2 weeks in Monrovia, Liberia

Now
79 °F

Passing clouds.


Feels Like: 83 °F
Forecast: N/A
Wind: No wind

Location: Roberts Field

Current Time: May 28, 2015 at 8:55:26 PM

Latest Report: May 28, 2015 at 8:30 PM


Visibility: N/A

Pressure: 29.92 "Hg

Humidity: 94%

Dew point: 77 °F

Location of MonroviaLocation

Historic Weather in Monrovia — Graph

°F

Monrovia temperature yesterday

Maximum temperature yesterday: 90 °F (at 1:30 PM)
Minimum temperature yesterday: 75 °F (at 11:30 PM)
Average temperature yesterday: 84 °F

Past Weeks' High & Low Weather Summary

 TemperatureHumidityPressure
High93 °F (May 18, 1:30 PM)100% (May 24, 6:30 AM)29.98 "Hg (May 24, 6:30 AM)
Low72 °F (May 15, 6:00 AM)56% (May 18, 1:30 PM)29.80 "Hg (May 14, 4:00 PM)
Average81 °F85%29.90 "Hg
* Reported May 13 8:00 PM — May 28 8:00 PM, Monrovia, Weather by CustomWeather, © 2015

Note: Actual official high and low records may vary slightly from our data, if they occured in-between our weather recording intervals... More about our weather records

Advertising

Monrovia weather history for previous 24 hours

 ConditionsComfort  
Time TempWeatherWind HumidityBarometerVisibility
8:00 PM
Thu, May 28
79 °FPassing clouds.No wind94%29.89 "Hg6 mi
7:30 PM81 °FPartly sunny.No wind84%29.89 "HgN/A
7:00 PM81 °FScattered clouds.No wind89%29.89 "HgN/A
4:30 PM84 °FPartly sunny.No wind79%29.83 "HgN/A
4:00 PM86 °FPartly sunny.3 mph75%29.83 "HgN/A
3:30 PM86 °FPartly sunny.8 mph75%29.83 "HgN/A
3:00 PM86 °FPartly sunny.5 mph75%29.83 "HgN/A
2:00 PM84 °FPartly sunny.No wind79%29.86 "HgN/A
1:30 PM84 °FPassing clouds.No wind79%29.86 "HgN/A
1:00 PM82 °FScattered clouds.No wind89%29.89 "HgN/A
12:30 PM81 °FScattered clouds.No wind84%29.89 "HgN/A
12:00 PM79 °FScattered clouds.No wind89%29.89 "HgN/A
11:30 AM77 °FScattered clouds.No wind94%29.89 "HgN/A
11:00 AM75 °FScattered clouds.No wind94%29.92 "HgN/A
10:30 AM75 °FThunderstorms. Scattered clouds.No wind94%29.89 "HgN/A
10:00 AM75 °FThunderstorms. Scattered clouds.No wind94%29.89 "HgN/A
9:30 AM73 °FThunderstorms. Partly sunny.No wind94%29.89 "HgN/A
9:00 AM73 °FThunderstorms. Broken clouds.No wind94%29.92 "Hg3 mi
8:30 AM75 °FThunderstorms. Mostly cloudy.13 mph94%29.92 "Hg3 mi
8:00 AM75 °FRain. Mostly cloudy.13 mph94%29.92 "Hg1 mi
7:30 AM75 °FPassing clouds.No wind94%29.89 "HgN/A
7:00 AM75 °FPassing clouds.No wind94%29.86 "HgN/A
6:30 AM73 °FPassing clouds.No wind94%29.86 "HgN/A
6:00 AM73 °FPassing clouds.No wind94%29.86 "HgN/A
5:30 AM73 °FPartly cloudy.No wind94%29.86 "HgN/A
5:00 AM73 °FPartly cloudy.No wind94%29.86 "HgN/A
4:30 AM73 °FPassing clouds.No wind94%29.86 "HgN/A
4:00 AM73 °FPassing clouds.No wind94%29.86 "HgN/A
3:30 AM73 °FPassing clouds.No wind94%29.86 "HgN/A
3:00 AM73 °FPassing clouds.No wind94%29.86 "HgN/A
2:30 AM73 °FPassing clouds.No wind94%29.86 "HgN/A
2:00 AM73 °FRain. Passing clouds.No wind94%29.86 "HgN/A
1:30 AM73 °FLight rain. Passing clouds.No wind94%29.86 "Hg6 mi
1:00 AM73 °FLight rain. Passing clouds.No wind94%29.89 "Hg6 mi
12:30 AM75 °FLight rain. Passing clouds.No wind94%29.89 "Hg5 mi
12:00 AM75 °FLight rain. Passing clouds.No wind94%29.92 "Hg5 mi
11:30 PM
Wed, May 27
75 °FLight rain. Passing clouds.14 mph94%29.92 "Hg5 mi
11:00 PM77 °FThunderstorms. Passing clouds.No wind94%29.92 "Hg5 mi
10:30 PM77 °FThunderstorms. Passing clouds.No wind94%29.92 "Hg4 mi
10:00 PM77 °FThunderstorms. Partly cloudy.No wind94%29.92 "Hg4 mi
9:30 PM79 °FThunderstorms. Partly cloudy.No wind94%29.95 "Hg4 mi
9:00 PM81 °FThunderstorms. Passing clouds.No wind94%29.89 "HgN/A
8:30 PM81 °FThunderstorms. Passing clouds.No wind94%29.89 "HgN/A
8:00 PM79 °FThunderstorms. Passing clouds.No wind94%29.89 "Hg6 mi
Weather by CustomWeather, © 2015

See weather overviewHow to use our weather pages